Regional Weather Roundup
Issued by NWS Upton, NY

Current Version | Previous Version | Graphics & Text | Print | Product List | Glossary Off
Versions: 1 2 3 4 5 6 7 8 9 10 11 12 13 14 15 16 17 18 19 20 21 22 23 24 25 26

000
ASUS41 KOKX 252305
RWROKX

Regional Weather Roundup
National Weather Service New York NY
700 PM EDT FRI MAY 25 2018

Note: "FAIR" indicates few or no clouds below 12,000 feet with no
significant weather and/or obstructions to visibility.

NYZ071-072-176-178-NJZ106-104-260000-
New York City Metro Area

CITY           SKY/WX    TMP DP  RH WIND       PRES   REMARKS
Central Park   FAIR      84  54  35 MISG      29.85F
Bronx Bot Gard   N/A     86  50  28 SW24      29.83F
Bronx Lehman C   N/A     86  50  28 SW12        N/A
LaGuardia Arpt FAIR      88  52  29 SW18G29   29.82S
Queens College   N/A     86  55  35 SW10        N/A
Kennedy Intl   PTSUNNY   71  62  73 S14       29.84F
Breezy Point     N/A     75 N/A N/A SW9         N/A
Brooklyn Coll    N/A     84  59  42 S8          N/A
Staten Island    N/A     84  57  39 W12         N/A
Newark/Liberty FAIR      86  55  34 SW21      29.82F
Teterboro      FAIR      87  53  31 W13G18    29.81F
$$

NYZ177-179-078>081-260000-
Long Island New York

CITY           SKY/WX    TMP DP  RH WIND       PRES   REMARKS
Jones Beach      N/A     64 N/A N/A S13G20      N/A
Wantagh          N/A     68  59  73 SW10        N/A
Hempstead        N/A    N/A N/A N/A S6        29.87S
Matinecock Pt    N/A     77 N/A N/A SW14        N/A
Farmingdale    FAIR      71  59  65 SW16      29.85F
MacArthur/ISP  FAIR      71  60  68 SW10G21   29.85F
Stony Brook      N/A     75  59  57 S5          N/A
Shirley        FAIR      71  60  68 SW14G22   29.86F
Mt Sinai Harb    N/A     73 N/A N/A S12         N/A
Westhampton    FAIR      67  56  67 SW13G24   29.87F
East Hampton   FAIR      67  58  72 SW12G24   29.86S
Southold         N/A     72  61  68 SW10        N/A
Montauk          N/A     68  59  73 SW13G23   29.86S
$$

NYZ052-065-067-260000-
Hudson Valley

CITY           SKY/WX    TMP DP  RH WIND       PRES   REMARKS
White Plains   FAIR      83  51  33 W6        29.82F
Larchmont Harb   N/A     82 N/A N/A SW20        N/A
Croton On Huds   N/A     82 N/A N/A W12         N/A
Somers           N/A     81  55  41 SW6         N/A
Brewster         N/A     82  52  34 SW3         N/A
Newburgh       SUNNY     84  59  42 SW14      29.82F
Montgomery     FAIR      82  59  45 SW8       29.80S
Otisville        N/A     82  48  30 W3          N/A
Warwick          N/A     82  57  42 SW7         N/A
Suffern          N/A     82  52  34 SW6         N/A
Poughkeepsie   FAIR      85  54  34 SW12G20   29.78F
Albany         PTSUNNY   81  51  35 W8        29.77S
$$

NJZ001-105-106-008-010-013-015-019>022-104-260000-
New Jersey

CITY           SKY/WX    TMP DP  RH WIND       PRES   REMARKS
Newark/Liberty FAIR      86  55  34 SW21      29.82F
Teterboro      FAIR      87  53  31 W13G18    29.81F
Caldwell       FAIR      86  53  32 W8G18     29.82F
Somerville     FAIR      83  63  50 VRB6      29.82F
Linden         NOT AVBL
Perth Amboy      N/A     84 N/A N/A SW15        N/A
Sussex         FAIR      83  58  42 SW5       29.83S
Andover          N/A     82  58  43 SW7       29.85S
Trenton        FAIR      83  61  47 SW10      29.85F
Millville      FAIR     N/A N/A N/A SW8G18    29.91S
Atlantic City  FAIR      81  63  54 S9        29.91S
Wrightstown    FAIR      82  60  47 SW14      29.85
Toms River     FAIR      84  60  44 SW15      29.88F
Belmar         FAIR      83  59  44 SW9       29.88S
$$

PAZ047>061-062-071-260000-
Eastern Pennsylvania

CITY           SKY/WX    TMP DP  RH WIND       PRES   REMARKS
Philadelphia   FAIR      83  58  42 SW16G23   29.88F
Allentown      FAIR      84  60  44 SW13      29.85F
Scranton       FAIR      82  54  37 SW10      29.86S
$$

CTZ002-004>006-009-010-012-RIZ004-006-007-MAZ004-011-015-260000-
Southern New England

 In CT

CITY           SKY/WX    TMP DP  RH WIND       PRES   REMARKS
Bradley Intl   FAIR      86  47  25 W10       29.77F
Hartford       FAIR      81  58  45 S12       29.78S
Danbury        FAIR      82  53  36 SW9       29.83S
Wtrbury/Oxford FAIR      82  53  36 SW8       29.83F
Norwalk Harbor   N/A     73 N/A N/A S16         N/A
Bridgeport     FAIR      74  59  59 S16       29.81S
Meriden        FAIR      78  58  49 S10       29.80S
New Haven      FAIR      73  59  61 S13       29.81F
Chester        FAIR      77  57  50 S7        29.84S
Groton         FAIR      65  58  78 SW14      29.82F
Willimantic    FAIR      81  56  42 SW8G20    29.80R

 In RI

CITY           SKY/WX    TMP DP  RH WIND       PRES   REMARKS
Providence     FAIR      77  55  46 SW15G25   29.80S
Block Island   FAIR      60  56  86 SW21G26   29.85F
Westerly       FAIR      69  58  67 SW13G18   29.84S

In MA

CITY           SKY/WX    TMP DP  RH WIND       PRES   REMARKS
Boston         PTSUNNY   85  48  27 SW15G26   29.73S
Worcester      FAIR      80  50  34 SW15      29.79F
Westfield      FAIR      84  46  26 SW7       29.77S
Provincetown   FAIR      65  56  72 SW21G28   29.77S
Nantucket      FAIR      59  55  87 SW22      29.85S
$$

ANZ330-335-338-340-345-350-353-355-260000-
Coastal Marine Observations


STATION/POSITION TIME  SKY/WX   TEMP    WIND        PRES    VSBY  WAVE
                                AIR SEA DIR/SP/G                  HT/PER
                 (UTC)          (F)     (DEG/KT/KT) (MB)    (MI)  (FT/S)
NY Harb Entrance 2250            63 56  200/ 17/ 19 1010.7          4/ 5
20 S Fire Island 2250            62 56  220/ 19/ 23 1011.2          4/ 5
23 SSW Montauk P 2250            60 56  220/ 19/ 21 1011.3          4/ 5
15 E Barnegat Li 2230               60                N/A           4/ 4
Hudson Canyon    2250            60 55  210/ 16/ 17 1012.9          3/ 4
Kings Point      2236            80 60  310/ 12/ 14 1010.9
Execution Rocks  NOT AVBL
Western LI Sound 2220            71     220/ 10/ 12   N/A           1
Central LI Sound 2230            67     210/ 16/ 17   N/A           2
Robbins Reef     2242            86     250/ 18/ 21 1010.6
$$


>>>>>>>>>>>>>>>>>>>>>>>>>>>> KEY <<<<<<<<<<<<<<<<<<<<<<<<<<<
>                                                          <
>     SKY/WX - Sky Condition/Present Weather               <
>     TMP    - Temperature in Fahrenheit                   <
>     DP     - Dew Point in Fahrenheit                     <
>     RH     - Relative Humidity in Percent                <
>     WIND   - Direction (from) and Speed in MPH           <
>     PRES   - Mean Sea Level Pressure (inches of Hg)      <
>     WCI    - Wind Chill Index                            <
>     VSB    - Visibility in Miles                         <
>     HX     - Heat Index                                  <
>     TC     - Temperature in Celsius                      <
>     VRB    - Varibale Wind Direction                     <
>                                                          <
>>>>>>>>>>>>>>>>>>>>>>>>>>>> KEY <<<<<<<<<<<<<<<<<<<<<<<<<<<




USA.gov is the U.S. government's official web portal to all federal, state and local government web resources and services.